GW0684 Weather Reports


time (UTC)temp
C
wind
direction
speed
KPH
gust
KPH
rain 1hr
cm
rain 24hr
cm
rain mn
cm
humidity
%
barometer
mb
20260507180542 17 271 3.2 8.0 0.00 0.71 0.10 40
20260507175542 17 286 3.2 8.0 0.00 0.74 0.10 41
20260507174542 17 284 3.2 8.0 0.00 0.89 0.10 41
20260507173542 17 309 3.2 6.4 0.00 0.91 0.10 43
20260507172543 17 240 3.2 9.7 0.00 0.91 0.10 42
20260507171623 17 299 3.2 8.0 0.00 0.91 0.10 41
20260507170543 17 286 3.2 8.0 0.00 0.91 0.10 42
20260507165543 17 274 3.2 6.4 0.00 0.91 0.10 43
20260507164543 16 264 4.8 8.0 0.00 0.91 0.10 44
20260507163543 17 294 3.2 8.0 0.00 0.91 0.10 45
20260507162544 17 278 3.2 8.0 0.00 0.91 0.10 45
20260507161544 16 324 3.2 6.4 0.00 0.91 0.10 49
20260507160625 16 264 3.2 8.0 0.00 0.91 0.10 51
20260507155605 15 274 3.2 8.0 0.00 0.91 0.10 54
20260507154545 14 258 3.2 6.4 0.00 0.91 0.10 60
20260507153545 15 281 3.2 6.4 0.00 0.91 0.10 62
20260507152545 14 319 3.2 6.4 0.00 0.91 0.10 66
20260507151545 14 299 1.6 4.8 0.00 0.91 0.10 64
20260507150545 14 238 3.2 8.0 0.00 0.91 0.10 64
20260507145546 14 325 3.2 4.8 0.00 0.91 0.10 65
20260507144605 14 264 1.6 6.4 0.00 0.91 0.10 65
20260507143546 15 282 3.2 6.4 0.00 0.91 0.10 65
20260507142546 15 57 1.6 8.0 0.00 0.91 0.10 64
20260507141546 14 276 1.6 6.4 0.00 0.91 0.10 66
20260507140546 14 315 1.6 4.8 0.00 0.91 0.10 65
20260507135706 13 283 3.2 6.4 0.00 0.91 0.10 66
20260507134548 13 304 3.2 4.8 0.00 0.91 0.10 68
20260507133547 13 300 1.6 4.8 0.00 0.91 0.10 71
20260507132548 12 56 3.2 4.8 0.00 0.91 0.10 71
20260507131547 12 241 3.2 6.4 0.00 0.91 0.10 74
20260507130548 12 292 1.6 4.8 0.00 0.91 0.10 77
20260507125547 11 256 1.6 4.8 0.00 0.91 0.10 82
20260507124608 11 272 3.2 4.8 0.00 0.91 0.10 84
20260507123548 10 295 1.6 4.8 0.00 0.91 0.10 86
20260507122549 10 343 1.6 3.2 0.00 0.91 0.10 90
20260507121548 9 319 3.2 4.8 0.00 0.91 0.10 94
20260507120548 8 309 1.6 3.2 0.00 0.91 0.10 97
20260507115608 8 307 1.6 3.2 0.00 0.91 0.10 99
20260507114549 7 305 1.6 3.2 0.00 0.91 0.10 99
20260507113550 7 305 1.6 3.2 0.00 0.91 0.10 99
20260507112549 7 305 1.6 3.2 0.00 0.91 0.10 99
20260507111549 7 287 0.0 1.6 0.00 0.91 0.10 99
20260507110629 7 269 0.0 1.6 0.00 0.91 0.10 99
20260507105551 7 281 1.6 3.2 0.00 0.91 0.10 99
20260507104551 7 277 1.6 3.2 0.00 0.91 0.10 99
20260507103551 7 281 1.6 3.2 0.00 0.91 0.10 99
20260507102612 7 298 1.6 1.6 0.00 0.91 0.10 99
20260507101552 7 293 1.6 1.6 0.00 0.91 0.10 99
20260507100612 7 330 0.0 1.6 0.00 0.91 0.10 99
20260507095552 7 307 1.6 1.6 0.00 0.91 0.10 99
20260507094552 7 285 1.6 3.2 0.00 0.91 0.10 99
20260507093552 7 289 1.6 1.6 0.00 0.91 0.10 99
20260507092552 7 308 1.6 3.2 0.00 0.91 0.10 99
20260507091553 7 304 1.6 3.2 0.00 0.91 0.10 99
20260507090553 7 312 1.6 3.2 0.00 0.91 0.10 99
20260507085554 7 271 1.6 3.2 0.03 0.91 0.10 99
20260507084554 7 306 1.6 3.2 0.10 0.91 0.10 99
20260507083614 7 284 1.6 3.2 0.10 0.91 0.10 99
20260507082554 7 307 1.6 1.6 0.10 0.91 0.10 99
20260507081614 8 284 1.6 3.2 0.10 0.91 0.10 99
20260507080554 8 287 1.6 3.2 0.08 0.91 0.08 99
20260507075614 8 298 0.0 1.6 0.05 0.89 0.05 99
20260507074554 8 313 1.6 3.2 0.00 0.84 0.00 99
20260507073555 8 286 1.6 3.2 0.00 0.84 0.00 99
20260507072615 8 323 0.0 3.2 0.00 0.84 0.00 99
20260507071555 8 281 1.6 3.2 0.00 0.84 0.00 99
20260507070555 8 308 1.6 3.2 0.00 0.84 0.00 99
20260507065615 8 292 1.6 3.2 0.00 0.84 0.00 99
20260507064555 8 304 1.6 3.2 0.00 0.84 0.00 99
20260507063556 8 304 0.0 1.6 0.00 0.84 0.00 99
20260507062556 9 330 1.6 3.2 0.00 0.84 0.00 99
20260507061556 9 309 0.0 3.2 0.00 0.84 0.00 99
20260507060617 9 333 1.6 3.2 0.00 0.84 0.00 99
20260507055557 9 10 0.0 3.2 0.00 0.84 0.00 99
20260507054557 9 246 0.0 1.6 0.00 0.84 0.00 99
20260507053657 10 323 1.6 1.6 0.00 0.84 0.00 99
20260507052557 10 292 0.0 3.2 0.00 0.84 0.00 99
20260507051637 10 272 1.6 1.6 0.00 0.84 0.00 99
20260507050618 10 345 0.0 1.6 0.00 0.84 0.00 99
20260507045558 10 337 0.0 1.6 0.00 0.84 0.00 99
20260507044558 10 322 1.6 1.6 0.00 0.84 0.00 99
20260507043557 10 290 1.6 1.6 0.00 0.84 0.00 99
20260507042618 10 284 1.6 3.2 0.00 0.84 0.00 99
20260507041558 10 277 1.6 3.2 0.00 0.84 0.00 99
20260507040558 11 262 1.6 3.2 0.00 0.84 0.00 99
20260507035559 11 268 1.6 3.2 0.00 0.84 0.00 99
20260507034558 11 297 1.6 3.2 0.00 0.84 0.00 99
20260507033559 11 282 3.2 4.8 0.00 0.84 0.00 99
20260507032559 12 289 3.2 4.8 0.00 0.84 0.00 99
20260507031620 13 328 1.6 4.8 0.00 0.84 0.00 99
20260507030601 13 274 1.6 3.2 0.00 0.84 0.00 99
20260507025600 14 289 3.2 4.8 0.00 0.84 0.00 99
20260507024600 14 275 1.6 3.2 0.00 0.84 0.00 99
20260507023600 14 260 1.6 4.8 0.00 0.84 0.00 99
20260507022600 14 222 1.6 3.2 0.00 0.84 0.00 99
20260507021601 14 251 1.6 4.8 0.00 0.84 0.00 99
20260507020600 14 267 1.6 3.2 0.00 0.84 0.00 99
20260507015619 15 274 1.6 4.8 0.00 0.84 0.00 99
20260507014600 15 326 1.6 4.8 0.00 0.84 0.00 99
20260507013601 15 80 3.2 11.3 0.00 0.84 0.00 99
20260507012601 14 302 1.6 3.2 0.00 0.84 0.00 99
20260507011621 15 112 1.6 4.8 0.00 0.84 0.00 99
20260507010602 15 186 1.6 6.4 0.00 0.84 0.00 99
20260507005601 14 83 3.2 11.3 0.00 0.84 0.00 99
20260507004600 14 174 1.6 4.8 0.00 0.84 0.00 99
20260507003600 15 122 1.6 6.4 0.00 0.84 0.00 99
20260507002601 15 147 3.2 8.0 0.00 0.84 0.00 99
20260507001621 15 241 3.2 9.7 0.00 0.84 0.00 99
20260507000601 15 109 3.2 6.4 0.03 0.84 0.00 99
20260506235602 15 299 3.2 9.7 0.05 0.84 0.84 99
20260506234601 15 60 3.2 4.8 0.05 0.84 0.84 99
20260506233621 15 150 3.2 8.0 0.05 0.84 0.84 99
20260506232601 15 11 1.6 4.8 0.05 0.84 0.84 99
20260506231602 15 152 3.2 6.4 0.05 0.81 0.81 99
20260506230601 15 165 3.2 11.3 0.05 0.81 0.81 99
20260506225603 15 139 1.6 6.4 0.00 0.76 0.76 99
20260506224604 15 17 1.6 8.0 0.00 0.76 0.76 99
20260506223602 15 189 3.2 6.4 0.03 0.76 0.76 99
20260506222602 15 83 3.2 8.0 0.05 0.76 0.76 99
20260506221602 15 231 1.6 4.8 0.08 0.76 0.76 99
20260506220602 15 125 4.8 8.0 0.10 0.76 0.76 99
20260506215603 15 273 1.6 4.8 0.13 0.76 0.76 99
20260506214603 15 97 1.6 4.8 0.15 0.76 0.76 99
20260506213603 15 150 3.2 6.4 0.15 0.74 0.74 99
20260506212604 15 94 4.8 9.7 0.18 0.74 0.74 99
20260506211603 15 133 4.8 8.0 0.18 0.69 0.69 99
20260506210603 15 122 3.2 4.8 0.18 0.66 0.66 99
20260506205623 15 238 3.2 8.0 0.18 0.64 0.64 99
20260506204603 15 105 3.2 8.0 0.15 0.61 0.61 100
20260506203603 16 139 0.0 4.8 0.13 0.58 0.58 99
20260506202604 16 143 1.6 4.8 0.10 0.53 0.53 99
20260506201604 16 122 3.2 8.0 0.08 0.51 0.51 98
20260506200604 16 27 3.2 8.0 0.05 0.48 0.48 98
20260506195604 16 135 1.6 8.0 0.08 0.46 0.46 99
20260506194605 16 188 1.6 3.2 0.10 0.46 0.46 100
20260506193604 16 55 1.6 4.8 0.13 0.46 0.46 99
20260506192604 16 111 0.0 1.6 0.15 0.46 0.46 99
20260506191604 16 120 1.6 3.2 0.20 0.43 0.43 100
20260506190605 16 166 0.0 3.2 0.20 0.43 0.43 100
20260506185606 16 165 0.0 1.6 0.20 0.38 0.38 100
20260506184605 16 252 1.6 1.6 0.30 0.36 0.36 100
20260506183605 16 261 0.0 3.2 0.33 0.33 0.33 99
20260506182606 16 246 0.0 1.6 0.28 0.28 0.28 99
20260506181606 17 252 0.0 1.6 0.25 0.25 0.25 97